FW5669 Weather Reports


Display with metric or nautical units.
time (UTC)temp
F
wind
direction
speed
MPH
gust
MPH
rain 1hr
in
rain 24hr
in
rain mn
in
humidity
%
barometer
mb
20260903180003 66 211 1.0 3.0 0.00 0.00 0.00 63 1016.0
20260903174502 65 144 1.0 3.0 0.00 0.00 0.00 65 1016.2
20260903173010 64 172 1.0 4.0 0.00 0.00 0.00 65 1016.3
20260903171502 64 108 1.0 3.0 0.00 0.00 0.00 66 1016.0
20260903170002 63 81 1.0 3.0 0.00 0.00 0.00 66 1016.4
20260903164502 62 49 1.0 4.0 0.00 0.00 0.00 66 1016.5
20260903163005 61 94 0.0 5.0 0.00 0.00 0.00 68 1016.3
20260903161606 61 70 0.0 5.0 0.00 0.00 0.00 68 1016.5
20260903160002 60 123 0.0 3.0 0.00 0.00 0.00 69 1016.7
20260903154503 60 152 0.0 4.0 0.00 0.00 0.00 70 1016.8
20260903153102 60 55 0.0 4.0 0.00 0.00 0.00 71 1016.8
20260903151502 59 88 1.0 5.0 0.00 0.00 0.00 72 1016.7
20260903150006 58 25 1.0 6.0 0.00 0.00 0.00 74 1016.6
20260903144503 58 89 0.0 3.0 0.00 0.00 0.00 75 1016.7
20260903143004 58 108 1.0 4.0 0.00 0.00 0.00 75 1016.4
20260903141502 58 33 1.0 4.0 0.00 0.00 0.00 76 1016.3
20260903140002 58 41 0.0 4.0 0.00 0.00 0.00 76 1016.3
20260903134611 58 48 0.0 5.0 0.00 0.00 0.00 75 1016.2
20260903133101 58 50 1.0 2.0 0.00 0.00 0.00 74 1016.2
20260903131503 58 63 0.0 4.0 0.00 0.00 0.00 74 1016.4
20260903130002 58 185 0.0 1.0 0.00 0.00 0.00 73 1016.3
20260903124501 58 29 1.0 3.0 0.00 0.00 0.00 72 1016.3
20260903123100 59 68 1.0 3.0 0.00 0.00 0.00 71 1016.3
20260903123002 59 28 1.0 3.0 0.00 0.00 0.00 71 1016.2
20260903121501 59 106 0.0 2.0 0.00 0.00 0.00 71 1016.3
20260903120003 59 54 0.0 2.0 0.00 0.00 0.00 70 1016.6
20260903114502 60 91 0.0 3.0 0.00 0.00 0.00 71 1016.7
20260903113002 60 211 0.0 3.0 0.00 0.00 0.00 71 1016.7
20260903111502 60 5 0.0 5.0 0.00 0.00 0.00 71 1016.7
20260903110001 60 40 1.0 5.0 0.00 0.00 0.00 71 1016.7
20260903104502 60 56 1.0 4.0 0.00 0.00 0.00 71 1016.8
20260903103002 60 64 1.0 5.0 0.00 0.00 0.00 71 1016.7
20260903101504 60 70 0.0 4.0 0.00 0.00 0.00 71 1016.8
20260903100003 60 80 1.0 4.0 0.00 0.00 0.00 71 1016.9
20260903094502 60 58 1.0 3.0 0.00 0.00 0.00 71 1017.1
20260903093007 60 53 0.0 2.0 0.00 0.00 0.00 72 1017.2
20260903091502 60 31 1.0 3.0 0.00 0.00 0.00 72 1017.3
20260903090002 59 37 0.0 2.0 0.00 0.00 0.00 74 1017.3
20260903084503 59 35 1.0 3.0 0.00 0.00 0.00 74 1017.4
20260903083002 59 38 0.0 2.0 0.00 0.00 0.00 75 1017.4
20260903081506 59 23 0.0 1.0 0.00 0.00 0.00 74 1017.3
20260903080002 59 23 0.0 1.0 0.00 0.00 0.00 74 1017.2
20260903074502 59 21 0.0 2.0 0.00 0.00 0.00 74 1017.2
20260903073002 59 50 0.0 3.0 0.00 0.00 0.00 74 1017.4
20260903071502 59 46 0.0 2.0 0.00 0.00 0.00 75 1017.4
20260903070008 59 58 0.0 2.0 0.00 0.00 0.00 74 1017.5
20260903064503 59 41 0.0 2.0 0.00 0.00 0.00 74 1017.2
20260903063005 59 37 1.0 2.0 0.00 0.00 0.00 75 1017.4
20260903061504 59 54 0.0 2.0 0.00 0.00 0.00 75 1017.5
20260903060006 59 64 0.0 2.0 0.00 0.00 0.00 74 1017.6
20260903054503 59 52 0.0 0.0 0.00 0.00 0.00 74 1017.6
20260903053006 59 52 0.0 0.0 0.00 0.00 0.00 74 1017.7
20260903051503 60 52 0.0 0.0 0.00 0.00 0.00 73 1017.7
20260903050006 61 52 0.0 0.0 0.00 0.00 0.00 71 1017.7
20260903044502 62 52 0.0 0.0 0.00 0.00 0.00 70 1017.7
20260903043007 62 45 0.0 0.0 0.00 0.00 0.00 69 1017.6
20260903041502 62 68 0.0 0.0 0.00 0.00 0.00 68 1017.6
20260903040003 63 68 0.0 1.0 0.00 0.00 0.00 67 1017.5
20260903034501 65 96 0.0 1.0 0.00 0.00 0.00 64 1017.2
20260903033103 66 96 0.0 0.0 0.00 0.00 0.00 62 1017.0
20260903031506 66 96 0.0 0.0 0.00 0.00 0.00 61 1016.8
20260903030003 67 168 0.0 0.0 0.00 0.00 0.00 59 1016.7
20260903024503 68 169 0.0 2.0 0.00 0.00 0.00 58 1016.8
20260903023130 69 199 1.0 3.0 0.00 0.00 0.00 56 1016.9
20260903021508 70 206 0.0 3.0 0.00 0.00 0.00 53 1017.0
20260903020107 70 168 1.0 6.0 0.00 0.00 0.00 53 1017.1
20260903014502 71 192 2.0 5.0 0.00 0.00 0.00 52 1017.0
20260903013010 71 193 2.0 7.0 0.00 0.00 0.00 51 1017.0
20260903011505 71 141 1.0 4.0 0.00 0.00 0.00 54 1017.2
20260903004502 72 185 3.0 8.0 0.00 0.00 0.00 52 1017.2
20260903003003 72 158 2.0 5.0 0.00 0.00 0.00 52 1017.4
20260903001504 72 193 0.0 4.0 0.00 0.00 0.00 51 1017.6
20260903000105 73 191 2.0 7.0 0.00 0.00 0.00 49 1017.5
20260902234501 72 115 0.0 3.0 0.00 0.00 0.00 50 1017.6
20260902233004 73 206 2.0 6.0 0.00 0.00 0.00 49 1017.6
20260902231502 73 88 2.0 4.0 0.00 0.00 0.00 49 1017.6
20260902230002 73 216 2.0 5.0 0.00 0.00 0.00 50 1017.9
20260902224505 72 147 1.0 6.0 0.00 0.00 0.00 53 1018.2
20260902223004 71 201 1.0 3.0 0.00 0.00 0.00 55 1018.3
20260902221502 71 74 1.0 5.0 0.00 0.00 0.00 56 1018.4
20260902220007 72 140 1.0 7.0 0.00 0.00 0.00 55 1018.6
20260902214509 71 211 1.0 4.0 0.00 0.00 0.00 57 1018.6
20260902213005 70 237 1.0 4.0 0.00 0.00 0.00 57 1018.9
20260902211501 70 158 2.0 5.0 0.00 0.00 0.00 58 1018.8
20260902210003 70 195 2.0 4.0 0.00 0.00 0.00 59 1018.8
20260902204503 70 185 2.0 6.0 0.00 0.00 0.00 57 1018.8
20260902203002 70 193 1.0 5.0 0.00 0.00 0.00 59 1019.0
20260902201504 69 221 0.0 6.0 0.00 0.00 0.00 60 1019.1
20260902200003 69 188 2.0 5.0 0.00 0.00 0.00 60 1019.3
20260902194503 69 149 2.0 4.0 0.00 0.00 0.00 59 1019.3
20260902193002 69 198 1.0 5.0 0.00 0.00 0.00 59 1019.4
20260902191505 69 220 1.0 7.0 0.00 0.00 0.00 60 1019.5
20260902190003 69 227 1.0 5.0 0.00 0.00 0.00 58 1019.7
20260902184502 69 188 2.0 4.0 0.00 0.00 0.00 59 1019.6
20260902183003 67 85 1.0 4.0 0.00 0.00 0.00 62 1019.5
20260902181502 67 77 1.0 5.0 0.00 0.00 0.00 61 1019.5